SOMP2B (47445 NORAD) Tracking and Keplerian Element Data

This shows tracking and keplerian element data for the satellite.

Feedback or suggestion? Click here.




ElementValue
Catalog47445
NameSOMP2B
Epoch Orbit1199
Epoch Day101.92563941
Epoch Year2021
RAAN164.2745
Inclination97.4912
Eccentricity0.0011611
Argument of Perigee338.8382
Mean Anonmoly21.2367
Mean Motion15.12833575
Decay Rate8.12E-06
L11 47445U 21006AJ 21101.92563941 .00000812 00000-0 49822-4 0 9997
L22 47445 97.4912 164.2745 0011611 338.8382 21.2367 15.12833575 11993

Live tracking and technical data element details for SOMP2B (NORAD 47445). SOMP2B can be tracked NOW for your location showing map with azimuth and elevation plus other details from your city location.

Track the satellite on the map from your city or location and see movement details for azimuth, elevation, latitude, longitude, range, height, and movement on the map or in text.







IsCatalogInMostPopularTable: catalog: 47445, numindb: 17
Update: records affected: 1



GetName: 47445 SOMP2B

Hit Count: updated at: Tue, 13 Apr 2021 04:53:00 GMT